FW2415 Weather Reports


Display with metric or nautical units.
time (UTC)temp
F
wind
direction
speed
MPH
gust
MPH
rain 1hr
in
rain 24hr
in
rain mn
in
humidity
%
barometer
mb
20260506184136 46 58 1.0 3.0 0.00 0.07 0.00 72 1018.3
20260506183531 46 59 1.0 3.0 0.00 0.07 0.00 72 1018.3
20260506183033 46 69 2.0 3.0 0.00 0.07 0.00 72 1018.3
20260506181233 46 89 1.0 7.0 0.00 0.07 0.00 72 1018.3
20260506180534 46 100 1.0 7.0 0.00 0.07 0.00 72 1018.3
20260506180020 46 111 3.0 7.0 0.00 0.07 0.00 72 1018.3
20260506175025 46 110 2.0 5.0 0.00 0.07 0.00 72 1018.3
20260506174521 46 70 2.0 5.0 0.00 0.07 0.00 72 1018.3
20260506173544 46 40 1.0 6.0 0.00 0.07 0.00 72 1018.3
20260506173019 46 101 1.0 3.0 0.00 0.07 0.00 72 1018.3
20260506172521 46 75 2.0 6.0 0.00 0.07 0.00 72 1018.3
20260506172015 46 106 3.0 6.0 0.00 0.07 0.00 72 1018.3
20260506171516 46 90 2.0 5.0 0.00 0.07 0.00 72 1018.3
20260506171054 46 111 2.0 5.0 0.00 0.07 0.00 72 1018.3
20260506170015 46 89 2.0 6.0 0.00 0.07 0.00 72 1018.3
20260506165513 46 95 2.0 7.0 0.00 0.07 0.00 72 1018.3
20260506165020 46 121 3.0 9.0 0.00 0.07 0.00 72 1018.3
20260506164046 46 116 3.0 8.0 0.00 0.07 0.00 72 1018.3
20260506163510 46 112 5.0 8.0 0.00 0.07 0.00 72 1018.3
20260506163020 46 98 2.0 6.0 0.00 0.07 0.00 72 1018.3
20260506162513 46 103 2.0 10.0 0.00 0.07 0.00 72 1018.3
20260506162014 46 78 4.0 10.0 0.00 0.07 0.00 72 1018.3
20260506161509 46 115 4.0 10.0 0.00 0.07 0.00 72 1018.3
20260506161017 46 74 5.0 10.0 0.00 0.07 0.00 72 1018.3
20260506160009 46 81 5.0 12.0 0.00 0.07 0.00 72 1018.3
20260506155508 46 110 5.0 9.0 0.00 0.07 0.00 72 1018.3
20260506154519 46 115 2.0 9.0 0.00 0.07 0.00 72 1018.3
20260506152530 46 115 7.0 12.0 0.00 0.07 0.00 72 1018.3
20260506152016 46 117 6.0 12.0 0.00 0.07 0.00 72 1018.3
20260506151512 46 125 7.0 12.0 0.00 0.07 0.00 72 1018.3
20260506151015 46 126 7.0 12.0 0.00 0.07 0.00 72 1018.3
20260506150520 46 113 7.0 9.0 0.00 0.07 0.00 72 1018.3
20260506150010 46 123 7.0 9.0 0.00 0.07 0.00 72 1018.3
20260506145512 46 123 5.0 9.0 0.00 0.07 0.00 72 1018.3
20260506145013 46 145 4.0 7.0 0.00 0.07 0.00 72 1018.3
20260506144016 46 269 1.0 5.0 0.00 0.07 0.00 72 1018.3
20260506143510 46 109 1.0 3.0 0.00 0.07 0.00 72 1018.3
20260506143012 46 209 2.0 8.0 0.00 0.07 0.00 72 1018.3
20260506142510 46 268 2.0 8.0 0.00 0.07 0.00 72 1018.3
20260506142013 46 104 4.0 7.0 0.00 0.07 0.00 72 1018.3
20260506140013 46 261 3.0 7.0 0.00 0.07 0.00 72 1018.3
20260506135012 46 225 1.0 3.0 0.00 0.07 0.00 72 1018.3
20260506134511 46 213 2.0 3.0 0.00 0.07 0.00 72 1018.3
20260506134012 46 263 1.0 6.0 0.00 0.07 0.00 72 1018.3
20260506133508 46 222 2.0 7.0 0.00 0.07 0.00 72 1018.3
20260506133023 46 210 3.0 7.0 0.00 0.07 0.00 72 1018.3
20260506131018 46 228 2.0 9.0 0.00 0.05 0.00 72 1018.3
20260506130514 46 250 2.0 9.0 0.00 0.05 0.00 72 1018.3
20260506130008 46 161 2.0 7.0 0.00 0.05 0.00 72 1018.3
20260506125507 46 241 2.0 7.0 0.00 0.05 0.00 72 1018.3
20260506125009 46 268 3.0 6.0 0.00 0.05 0.00 72 1018.3
20260506124507 46 226 1.0 8.0 0.00 0.05 0.00 72 1018.3
20260506123506 46 249 2.0 3.0 0.00 0.05 0.00 72 1018.3
20260506123010 46 204 2.0 7.0 0.00 0.05 0.00 72 1018.3
20260506122507 46 172 1.0 7.0 0.00 0.05 0.00 72 1018.3
20260506122008 46 247 2.0 7.0 0.00 0.05 0.00 72 1018.3
20260506121506 46 164 3.0 7.0 0.00 0.05 0.00 72 1018.3
20260506121009 46 168 1.0 8.0 0.00 0.02 0.00 72 1018.3
20260506120507 46 178 4.0 9.0 0.00 0.02 0.00 72 1018.3
20260506115507 46 150 3.0 8.0 0.00 0.02 0.00 72 1018.3
20260506113507 46 109 3.0 10.0 0.00 0.02 0.00 72 1018.3
20260506113008 46 169 3.0 10.0 0.00 0.02 0.00 72 1018.3
20260506112509 46 131 3.0 9.0 0.00 0.02 0.00 72 1018.3
20260506112011 46 155 6.0 9.0 0.00 0.02 0.00 72 1018.3
20260506111510 46 155 2.0 7.0 0.00 0.02 0.00 72 1018.3
20260506111012 46 251 2.0 7.0 0.00 0.02 0.00 72 1018.3
20260506110527 46 94 2.0 8.0 0.00 0.02 0.00 72 1018.3
20260506110007 46 146 2.0 9.0 0.00 0.02 0.00 72 1018.3
20260506105518 46 124 4.0 10.0 0.00 0.02 0.00 72 1018.3
20260506105009 46 109 6.0 10.0 0.00 0.02 0.00 72 1018.3
20260506104509 46 149 3.0 9.0 0.00 0.02 0.00 72 1018.3
20260506104008 46 137 3.0 9.0 0.00 0.02 0.00 72 1018.3
20260506103507 46 208 2.0 7.0 0.00 0.02 0.00 72 1018.3
20260506103010 46 181 3.0 7.0 0.00 0.02 0.00 72 1018.3
20260506102507 46 161 1.0 7.0 0.00 0.02 0.00 72 1018.3
20260506102008 46 208 3.0 7.0 0.00 0.02 0.00 72 1018.3
20260506101506 46 97 4.0 6.0 0.00 0.02 0.00 72 1018.3
20260506101009 46 92 2.0 6.0 0.00 0.02 0.00 72 1018.3
20260506100507 46 54 3.0 6.0 0.00 0.02 0.00 72 1018.3
20260506100007 46 233 2.0 8.0 0.00 0.02 0.00 72 1018.3
20260506095507 46 154 4.0 8.0 0.00 0.02 0.00 72 1018.3
20260506094507 46 172 3.0 6.0 0.00 0.02 0.00 72 1018.3
20260506093507 46 136 3.0 7.0 0.00 0.02 0.00 72 1018.3
20260506093006 46 162 2.0 7.0 0.00 0.02 0.00 72 1018.3
20260506092506 46 207 1.0 3.0 0.00 0.02 0.00 72 1018.3
20260506092006 46 285 0.0 3.0 0.00 0.02 0.00 72 1018.3
20260506091506 46 171 2.0 5.0 0.00 0.02 0.00 72 1018.3
20260506090007 46 165 2.0 3.0 0.00 0.02 0.00 72 1018.3
20260506085514 46 123 2.0 7.0 0.00 0.02 0.00 72 1018.3
20260506085006 46 123 3.0 7.0 0.00 0.02 0.00 72 1018.3
20260506084506 46 169 1.0 3.0 0.02 0.02 0.00 72 1018.3
20260506084007 46 108 2.0 6.0 0.00 0.02 0.00 72 1018.3
20260506083007 46 126 3.0 10.0 0.00 0.02 0.00 72 1018.3
20260506082507 46 119 4.0 10.0 0.00 0.02 0.00 72 1018.3
20260506082007 46 94 3.0 10.0 0.00 0.02 0.00 72 1018.3
20260506081507 46 123 3.0 6.0 0.00 0.02 0.00 72 1018.3
20260506081010 46 165 1.0 3.0 0.00 0.02 0.00 72 1018.3
20260506080507 46 135 1.0 3.0 0.00 0.02 0.00 72 1018.3
20260506073507 46 221 0.0 2.0 0.00 0.00 0.00 72 1018.3
20260506073006 46 223 0.0 2.0 0.00 0.00 0.00 72 1018.3
20260506072506 46 223 0.0 2.0 0.00 0.00 0.00 72 1018.3
20260506072006 46 229 1.0 2.0 0.00 0.00 0.00 72 1018.3
20260506071506 46 244 1.0 3.0 0.00 0.02 0.00 72 1018.3
20260506071007 46 212 1.0 3.0 0.00 0.02 0.00 72 1018.3
20260506061506 46 290 0.0 0.0 0.00 0.02 0.00 72 1018.3
20260506060506 46 290 0.0 0.0 0.00 0.03 0.00 72 1018.3
20260506051010 46 236 0.0 1.0 0.00 0.03 0.00 72 1018.3
20260506050508 46 235 0.0 0.0 0.00 0.03 0.00 72 1018.3
20260506045010 46 235 0.0 2.0 0.00 0.03 0.00 72 1018.3
20260506044507 46 235 0.0 2.0 0.00 0.03 0.00 72 1018.3
20260506044010 46 248 0.0 2.0 0.00 0.03 0.00 72 1018.3
20260506043507 46 262 1.0 2.0 0.00 0.03 0.00 72 1018.3
20260506043010 46 289 0.0 2.0 0.00 0.03 0.00 72 1018.3
20260506042506 46 289 0.0 2.0 0.00 0.03 0.00 72 1018.3
20260506042009 46 108 0.0 1.0 0.00 0.03 0.00 72 1018.3
20260506041507 46 108 0.0 6.0 0.00 0.03 0.00 72 1018.3
20260506040507 46 108 0.0 6.0 0.00 0.03 0.00 72 1018.3
20260506035507 46 108 0.0 6.0 0.00 0.03 0.00 72 1018.3
20260506035013 46 108 0.0 6.0 0.00 0.03 0.00 72 1018.3
20260506034011 46 108 0.0 6.0 0.00 0.03 0.00 72 1018.3
20260506033510 46 108 0.0 6.0 0.00 0.03 0.00 72 1018.3
20260506033011 46 93 0.0 6.0 0.00 0.03 0.00 72 1018.3
20260506031506 46 304 0.0 0.0 0.00 0.03 0.00 72 1018.3
20260506030509 46 304 0.0 3.0 0.00 0.03 0.00 72 1018.3
20260506030007 46 304 1.0 3.0 0.00 0.03 0.00 72 1018.3
20260506025507 46 300 1.0 6.0 0.00 0.03 0.00 72 1018.3
20260506025009 46 232 0.0 6.0 0.00 0.03 0.00 72 1018.3
20260506024507 46 259 0.0 2.0 0.00 0.03 0.00 72 1018.3
20260506024013 46 300 0.0 0.0 0.00 0.03 0.00 72 1018.3
20260506023509 46 300 0.0 0.0 0.00 0.03 0.00 72 1018.3
20260506023008 46 300 0.0 0.0 0.00 0.03 0.00 72 1018.3
20260506022508 46 300 0.0 0.0 0.00 0.03 0.00 72 1018.3
20260506022010 46 300 0.0 0.0 0.00 0.03 0.00 72 1018.3
20260506021506 46 300 0.0 0.0 0.00 0.03 0.00 72 1018.3
20260506021009 46 300 0.0 0.0 0.00 0.03 0.00 72 1018.3
20260506020507 46 300 0.0 0.0 0.00 0.03 0.00 72 1018.3
20260506020007 46 300 0.0 0.0 0.00 0.04 0.00 72 1018.3
20260506015013 46 300 0.0 0.0 0.00 0.04 0.00 72 1018.3
20260506014521 46 300 0.0 0.0 0.00 0.04 0.00 72 1018.3
20260506014041 46 300 0.0 0.0 0.00 0.04 0.00 72 1018.3
20260506013509 46 300 0.0 0.0 0.00 0.04 0.00 72 1018.3
20260506013209 46 300 0.0 0.0 0.00 0.04 0.00 72 1018.3
20260506012508 46 300 0.0 0.0 0.00 0.04 0.00 72 1018.3
20260506012009 46 300 0.0 0.0 0.00 0.04 0.00 72 1018.3
20260506011009 46 300 0.0 0.0 0.00 0.04 0.00 72 1018.3
20260506010507 46 300 0.0 0.0 0.00 0.04 0.00 72 1018.3
20260506010006 46 300 0.0 0.0 0.00 0.04 0.00 72 1018.3
20260506005506 46 300 0.0 0.0 0.00 0.04 0.00 72 1018.3
20260506005006 46 300 0.0 0.0 0.00 0.04 0.00 72 1018.3
20260506004011 46 300 0.0 0.0 0.00 0.04 0.00 72 1018.3
20260506003506 46 300 0.0 0.0 0.00 0.04 0.00 72 1018.3
20260506003006 46 300 0.0 0.0 0.00 0.04 0.00 72 1018.3
20260506002505 46 300 0.0 0.0 0.00 0.04 0.00 72 1018.3
20260506001505 46 300 0.0 2.0 0.00 0.04 0.00 72 1018.3
20260506001006 46 300 0.0 2.0 0.00 0.04 0.00 72 1018.3
20260506000506 46 300 1.0 2.0 0.00 0.04 0.00 72 1018.3
20260506000008 46 303 1.0 3.0 0.00 0.04 0.00 72 1018.3
20260505235507 46 299 1.0 3.0 0.00 0.04 0.00 72 1018.3
20260505234507 46 336 0.0 1.0 0.00 0.04 0.00 72 1018.3
20260505233007 46 347 1.0 3.0 0.00 0.05 0.00 72 1018.3
20260505232506 46 326 1.0 3.0 0.00 0.05 0.00 72 1018.3
20260505232006 46 326 1.0 3.0 0.00 0.05 0.00 72 1018.3
20260505231506 46 329 2.0 3.0 0.00 0.05 0.00 72 1018.3
20260505231008 46 331 2.0 3.0 0.00 0.05 0.00 72 1018.3
20260505230508 46 309 0.0 3.0 0.00 0.05 0.00 72 1018.3
20260505225507 46 267 1.0 2.0 0.00 0.06 0.02 72 1018.3
20260505225007 46 156 0.0 0.0 0.00 0.06 0.02 72 1018.3
20260505224506 46 156 0.0 0.0 0.00 0.06 0.02 72 1018.3
20260505223506 46 156 0.0 2.0 0.00 0.06 0.02 72 1018.3
20260505222507 46 65 1.0 3.0 0.00 0.06 0.02 72 1018.3
20260505221506 46 17 1.0 3.0 0.00 0.06 0.02 72 1018.3
20260505221007 46 24 1.0 3.0 0.00 0.06 0.02 72 1018.3
20260505220506 46 29 1.0 6.0 0.00 0.06 0.02 72 1018.3
20260505220006 46 29 1.0 6.0 0.00 0.06 0.02 72 1018.3
20260505215506 46 28 1.0 6.0 0.00 0.06 0.02 72 1018.3